WA9NNN-10 Weather Reports


Display with metric or nautical units.
time (UTC)temp
F
wind
direction
speed
MPH
gust
MPH
rain 1hr
in
rain 24hr
in
rain mn
in
humidity
%
barometer
mb
20260902171331 100 229 2.0 4.0 0.00 0.00 0.00 46 1013.9
20260902170832 100 179 2.0 3.0 0.00 0.00 0.00 48 1014.0
20260902170331 100 210 4.0 3.0 0.00 0.00 0.00 47 1014.0
20260902165831 100 198 7.0 3.0 0.00 0.00 0.00 48 1014.0
20260902165331 99 241 1.0 3.0 0.00 0.00 0.00 49 1014.1
20260902164831 99 300 2.0 2.0 0.00 0.00 0.00 49 1014.2
20260902164330 99 210 2.0 2.0 0.00 0.00 0.00 49 1014.2
20260902163831 98 294 1.0 3.0 0.00 0.00 0.00 50 1014.2
20260902163331 98 221 5.0 4.0 0.00 0.00 0.00 50 1014.2
20260902162832 98 217 3.0 4.0 0.00 0.00 0.00 50 1014.2
20260902162331 98 175 4.0 3.0 0.00 0.00 0.00 51 1014.2
20260902161831 98 229 1.0 3.0 0.00 0.00 0.00 51 1014.3
20260902161330 97 227 1.0 3.0 0.00 0.00 0.00 52 1014.3
20260902160831 97 198 1.0 3.0 0.00 0.00 0.00 53 1014.3
20260902160331 96 208 2.0 2.0 0.00 0.00 0.00 52 1014.3
20260902155831 96 178 1.0 2.0 0.00 0.00 0.00 54 1014.3
20260902155330 95 306 1.0 2.0 0.00 0.00 0.00 55 1014.5
20260902154831 95 293 3.0 2.0 0.00 0.00 0.00 55 1014.6
20260902154331 95 137 1.0 2.0 0.00 0.00 0.00 56 1014.6
20260902153831 94 287 2.0 2.0 0.00 0.00 0.00 56 1014.7
20260902153330 94 298 1.0 2.0 0.00 0.00 0.00 56 1014.6
20260902152831 94 235 1.0 2.0 0.00 0.00 0.00 57 1014.6
20260902152331 93 218 1.0 2.0 0.00 0.00 0.00 58 1014.5
20260902134831 85 221 1.0 4.0 0.00 0.00 0.00 68 1014.5
20260902132330 83 198 2.0 1.0 0.00 0.00 0.00 72 1014.8
20260902131831 83 200 1.0 2.0 0.00 0.00 0.00 72 1014.9
20260902131330 83 195 2.0 3.0 0.00 0.00 0.00 72 1014.6
20260902130831 82 224 3.0 2.0 0.00 0.00 0.00 72 1014.6
20260902130331 82 203 3.0 2.0 0.00 0.00 0.00 72 1014.6
20260902125831 82 219 1.0 2.0 0.00 0.00 0.00 72 1014.6
20260902124830 82 231 1.0 2.0 0.00 0.00 0.00 72 1014.8
20260902124330 82 218 3.0 2.0 0.00 0.00 0.00 73 1014.8
20260902122330 81 217 2.0 3.0 0.00 0.00 0.00 73 1014.8
20260902120330 81 221 2.0 2.0 0.00 0.00 0.00 74 1014.8
20260902115831 81 221 3.0 2.0 0.00 0.00 0.00 74 1014.7
20260902115330 81 217 3.0 2.0 0.00 0.00 0.00 74 1014.6
20260902113330 81 190 2.0 2.0 0.00 0.00 0.00 74 1014.6
20260902112831 81 146 2.0 2.0 0.00 0.00 0.00 74 1014.7
20260902112330 81 204 2.0 2.0 0.00 0.00 0.00 74 1014.7
20260902111831 81 150 1.0 3.0 0.00 0.00 0.00 74 1014.6
20260902111330 81 206 1.0 3.0 0.00 0.00 0.00 74 1014.7
20260902110330 81 210 3.0 2.0 0.00 0.00 0.00 73 1014.6
20260902105830 81 207 2.0 2.0 0.00 0.00 0.00 73 1014.5
20260902105330 81 188 2.0 3.0 0.00 0.00 0.00 73 1014.6
20260902104330 81 220 4.0 3.0 0.00 0.00 0.00 73 1014.5
20260902103831 81 220 2.0 2.0 0.00 0.00 0.00 73 1014.5
20260902103331 81 215 3.0 2.0 0.00 0.00 0.00 73 1014.5
20260902102830 81 185 1.0 2.0 0.00 0.00 0.00 73 1014.5
20260902101830 81 234 2.0 2.0 0.00 0.00 0.00 73 1014.6
20260902101330 81 0 0.0 3.0 0.00 0.00 0.00 73 1014.6
20260902095831 81 219 2.0 3.0 0.00 0.00 0.00 73 1014.5
20260902095332 81 200 3.0 3.0 0.00 0.00 0.00 73 1014.5
20260902094330 81 213 4.0 1.0 0.00 0.00 0.00 74 1014.6
20260902092831 81 213 2.0 3.0 0.00 0.00 0.00 75 1014.4
20260902091831 81 214 4.0 3.0 0.00 0.00 0.00 75 1014.3
20260902090831 81 212 3.0 2.0 0.00 0.00 0.00 76 1014.3
20260902090330 81 226 2.0 2.0 0.00 0.00 0.00 76 1014.3
20260902085330 81 191 1.0 2.0 0.00 0.00 0.00 76 1014.4
20260902084330 81 214 2.0 2.0 0.00 0.00 0.00 76 1014.4
20260902083330 81 188 1.0 2.0 0.00 0.00 0.00 76 1014.3
20260902082831 81 193 3.0 2.0 0.00 0.00 0.00 76 1014.2
20260902082330 81 205 2.0 2.0 0.00 0.00 0.00 76 1014.2
20260902080831 82 207 2.0 2.0 0.00 0.00 0.00 76 1014.1
20260902074831 82 187 2.0 2.0 0.00 0.00 0.00 76 1014.2
20260902074330 82 182 1.0 2.0 0.00 0.00 0.00 75 1014.2
20260902073831 82 217 3.0 2.0 0.00 0.00 0.00 75 1014.2
20260902073330 82 187 2.0 2.0 0.00 0.00 0.00 75 1014.2
20260902072330 82 193 2.0 1.0 0.00 0.00 0.00 76 1014.1
20260902071830 82 208 1.0 2.0 0.00 0.00 0.00 76 1014.1
20260902070909 81 201 2.0 2.0 0.00 0.00 0.00 76 1014.0
20260902065831 81 189 2.0 1.0 0.00 0.00 0.00 77 1014.1
20260902065330 81 218 2.0 1.0 0.00 0.00 0.00 77 1014.2
20260902064831 82 0 0.0 2.0 0.00 0.00 0.00 77 1014.3
20260902064330 82 223 2.0 2.0 0.00 0.00 0.00 77 1014.2
20260902061830 82 0 0.0 1.0 0.00 0.00 0.00 76 1014.2
20260902061331 83 205 1.0 1.0 0.00 0.00 0.00 76 1014.2
20260902060830 83 0 0.0 1.0 0.00 0.00 0.00 75 1014.2
20260902055830 83 231 2.0 2.0 0.00 0.00 0.00 75 1014.1
20260902055332 83 202 1.0 2.0 0.00 0.00 0.00 75 1014.0
20260902054831 83 213 2.0 2.0 0.00 0.00 0.00 74 1014.0
20260902053831 83 215 2.0 2.0 0.00 0.00 0.00 74 1014.1
20260902053331 84 217 1.0 2.0 0.00 0.00 0.00 74 1014.1
20260902052832 84 219 2.0 2.0 0.00 0.00 0.00 73 1014.2
20260902052330 84 189 2.0 2.0 0.00 0.00 0.00 73 1014.1
20260902045831 84 203 4.0 3.0 0.00 0.00 0.00 73 1014.1
20260902045331 84 178 3.0 3.0 0.00 0.00 0.00 72 1014.0
20260902044831 85 224 1.0 3.0 0.00 0.00 0.00 72 1014.0
20260902043831 85 214 1.0 2.0 0.00 0.00 0.00 72 1013.9
20260902043331 85 231 2.0 2.0 0.00 0.00 0.00 72 1014.0
20260902042831 85 209 1.0 2.0 0.00 0.00 0.00 71 1014.0
20260902042331 85 218 2.0 3.0 0.00 0.00 0.00 71 1014.0
20260902041832 85 224 4.0 3.0 0.00 0.00 0.00 71 1014.1
20260902041331 85 212 1.0 3.0 0.00 0.00 0.00 71 1014.1
20260902040331 85 148 3.0 2.0 0.00 0.00 0.00 71 1014.0
20260902035330 86 204 1.0 3.0 0.00 0.00 0.00 70 1014.2
20260902034831 86 198 1.0 3.0 0.00 0.00 0.00 70 1014.2
20260902033831 86 219 2.0 2.0 0.00 0.00 0.00 70 1014.2
20260902033331 86 206 3.0 2.0 0.00 0.00 0.00 70 1014.3
20260902032831 86 199 2.0 3.0 0.00 0.00 0.00 69 1014.3
20260902032331 86 240 4.0 2.0 0.00 0.00 0.00 69 1014.4
20260902031332 87 214 3.0 3.0 0.00 0.00 0.00 69 1014.2
20260902030831 87 210 1.0 3.0 0.00 0.00 0.00 69 1014.2
20260902030331 87 223 4.0 3.0 0.00 0.00 0.00 69 1014.2
20260902024331 87 215 1.0 3.0 0.00 0.00 0.00 68 1014.2
20260902023831 87 182 4.0 3.0 0.00 0.00 0.00 68 1014.1
20260902023332 88 217 4.0 3.0 0.00 0.00 0.00 68 1014.0
20260902022330 88 221 2.0 4.0 0.00 0.00 0.00 68 1014.1
20260902021831 88 208 3.0 4.0 0.00 0.00 0.00 68 1014.1
20260902021330 88 209 4.0 4.0 0.00 0.00 0.00 68 1014.1
20260902015331 89 228 3.0 3.0 0.00 0.00 0.00 67 1013.9
20260902014331 89 201 3.0 3.0 0.00 0.00 0.00 67 1013.9
20260902010330 90 193 2.0 3.0 0.00 0.00 0.00 63 1013.4
20260902003330 91 223 1.0 3.0 0.00 0.00 0.00 62 1013.1
20260902002831 91 198 4.0 3.0 0.00 0.00 0.00 61 1013.2
20260902001831 92 176 3.0 4.0 0.00 0.00 0.00 61 1013.2
20260902001333 92 229 5.0 4.0 0.00 0.00 0.00 61 1013.3
20260902000831 92 199 4.0 4.0 0.00 0.00 0.00 61 1013.2
20260902000331 92 220 4.0 3.0 0.00 0.00 0.00 61 1013.3
20260901235332 93 176 2.0 4.0 0.00 0.00 0.00 61 1013.4
20260901234831 93 208 3.0 4.0 0.00 0.00 0.00 60 1013.4
20260901234330 93 209 5.0 3.0 0.00 0.00 0.00 60 1013.3
20260901233831 93 193 3.0 4.0 0.00 0.00 0.00 60 1013.3
20260901233331 93 233 3.0 4.0 0.00 0.00 0.00 60 1013.3
20260901232831 93 190 6.0 4.0 0.00 0.00 0.00 59 1013.4
20260901232330 93 236 2.0 4.0 0.00 0.00 0.00 59 1013.5
20260901231332 94 226 8.0 4.0 0.00 0.00 0.00 59 1013.4
20260901230831 94 198 2.0 4.0 0.00 0.00 0.00 59 1013.4
20260901230331 94 221 6.0 5.0 0.00 0.00 0.00 59 1013.4
20260901225831 94 217 4.0 4.0 0.00 0.09 0.00 58 1013.4
20260901225332 94 163 8.0 4.0 0.00 0.09 0.00 59 1013.5
20260901224330 94 214 5.0 4.0 0.00 0.09 0.00 59 1013.5
20260901223831 94 217 5.0 5.0 0.00 0.09 0.00 58 1013.5
20260901223331 94 189 1.0 5.0 0.00 0.09 0.00 58 1013.5
20260901222833 94 224 6.0 5.0 0.00 0.09 0.00 58 1013.5
20260901222331 94 231 5.0 4.0 0.00 0.09 0.00 58 1013.5
20260901221831 95 193 3.0 4.0 0.00 0.09 0.00 58 1013.5
20260901221331 95 212 4.0 4.0 0.00 0.09 0.00 58 1013.5
20260901220330 96 221 5.0 3.0 0.00 0.09 0.00 57 1013.5
20260901215832 96 214 2.0 3.0 0.00 0.21 0.00 58 1013.4
20260901215330 96 226 3.0 3.0 0.00 0.21 0.00 58 1013.4
20260901214831 96 220 3.0 3.0 0.00 0.21 0.00 57 1013.5
20260901214330 96 250 2.0 3.0 0.00 0.21 0.00 56 1013.4
20260901213831 96 238 5.0 2.0 0.00 0.21 0.00 56 1013.4
20260901213331 96 212 2.0 3.0 0.00 0.21 0.00 58 1013.4
20260901211831 96 244 2.0 4.0 0.00 0.21 0.00 58 1013.5
20260901211330 96 225 4.0 3.0 0.00 0.21 0.00 58 1013.4
20260901205831 96 193 3.0 4.0 0.00 0.28 0.00 58 1013.5
20260901205331 96 196 6.0 4.0 0.00 0.28 0.00 58 1013.5
20260901204831 96 196 2.0 4.0 0.00 0.28 0.00 58 1013.5
20260901204330 96 274 1.0 5.0 0.00 0.28 0.00 57 1013.6
20260901203831 96 170 5.0 5.0 0.00 0.28 0.00 57 1013.4
20260901203330 97 183 7.0 4.0 0.00 0.28 0.00 57 1013.4
20260901202831 97 164 3.0 3.0 0.00 0.28 0.00 58 1013.5
20260901202330 97 224 1.0 4.0 0.00 0.28 0.00 57 1013.6
20260901201831 97 333 2.0 3.0 0.00 0.28 0.00 57 1013.6
20260901201330 97 181 6.0 3.0 0.00 0.28 0.00 58 1013.6
20260901200832 97 250 3.0 3.0 0.00 0.28 0.00 57 1013.6
20260901200330 97 224 4.0 3.0 0.00 0.28 0.00 57 1013.7
20260901195831 98 249 2.0 4.0 0.00 0.43 0.00 56 1013.6
20260901195330 99 227 5.0 3.0 0.00 0.43 0.00 55 1013.6
20260901194830 99 184 5.0 4.0 0.00 0.43 0.00 56 1013.7
20260901194330 99 221 3.0 4.0 0.00 0.43 0.00 55 1013.7
20260901193831 99 231 5.0 4.0 0.00 0.43 0.00 54 1013.7
20260901193331 99 229 5.0 4.0 0.00 0.43 0.00 55 1013.7
20260901192830 100 169 11.0 4.0 0.00 0.43 0.00 54 1013.8
20260901192331 100 198 3.0 4.0 0.00 0.43 0.00 54 1013.8
20260901191831 99 219 2.0 4.0 0.00 0.43 0.00 55 1013.8
20260901191330 99 209 2.0 5.0 0.00 0.43 0.00 54 1013.8
20260901190831 99 207 4.0 5.0 0.00 0.43 0.00 54 1013.8
20260901190330 100 213 6.0 5.0 0.00 0.43 0.00 53 1013.8
20260901185831 101 221 5.0 4.0 0.00 0.43 0.00 52 1013.9
20260901185330 101 206 1.0 3.0 0.00 0.43 0.00 53 1014.0
20260901184831 102 233 3.0 4.0 0.00 0.43 0.00 52 1014.0
20260901184330 102 186 5.0 4.0 0.00 0.43 0.00 52 1014.1
20260901183830 102 224 3.0 3.0 0.00 0.43 0.00 51 1014.1
20260901183331 102 170 1.0 3.0 0.00 0.43 0.00 53 1014.1
20260901182831 102 154 4.0 3.0 0.00 0.43 0.00 53 1014.1
20260901182330 102 226 4.0 2.0 0.00 0.43 0.00 53 1014.1
20260901181831 101 223 2.0 2.0 0.00 0.43 0.00 53 1014.1
20260901181330 101 228 3.0 2.0 0.00 0.43 0.00 53 1014.0
20260901180830 101 276 1.0 3.0 0.00 0.43 0.00 51 1014.0
20260901180330 101 233 2.0 3.0 0.00 0.43 0.00 52 1014.1
20260901175830 101 281 2.0 2.0 0.00 0.43 0.00 53 1014.2
20260901175330 101 0 0.0 2.0 0.00 0.43 0.00 53 1014.4
20260901174831 101 236 4.0 2.0 0.00 0.43 0.00 53 1014.3
20260901174331 101 307 2.0 2.0 0.00 0.43 0.00 53 1014.3
20260901173830 100 284 3.0 4.0 0.00 0.43 0.00 53 1014.4
20260901173330 100 194 3.0 4.0 0.00 0.43 0.00 53 1014.5
20260901172831 101 209 3.0 3.0 0.00 0.43 0.00 52 1014.4
20260901172333 100 231 2.0 2.0 0.00 0.43 0.00 53 1014.5
20260901171831 100 269 1.0 2.0 0.00 0.43 0.00 54 1014.6